QPF
0.00 0.00 0.00 0.00 0.00 0.00 0.00 0.00 0.00 0.00 0.00 0.00 0.00 0.00 0.00 0.00 0.00 0.00 0.00 0.00 0.00 0.00 0.00 0.00 0.00 0.00 0.00 0.00 0.00 0.00 0.00 0.00 0.00 0.00 0.00 0.00 0.00 0.00 0.01 0.02 0.01 0.00 0.00 0.00 0.00
0.00 0.00 0.00 0.00 0.00 0.00 0.00 0.00 0.00 0.00 0.00 0.00 0.00 0.00 0.00 0.00 0.00 0.00 0.00 0.00 0.00 0.00 0.00 0.00 0.00 0.00 0.00 0.00 0.00 0.00 0.00 0.00 0.00 0.00 0.00 0.00 0.00 0.00 0.01 0.02 0.01 0.00 0.00 0.00 0.00
0.00 0.00 0.00 0.00 0.00 0.00 0.00 0.00 0.00 0.00 0.00 0.00 0.00 0.00 0.00 0.00 0.00 0.00 0.00 0.00 0.00 0.00 0.00 0.00 0.00 0.00 0.00 0.00 0.00 0.00 0.00 0.00 0.00 0.00 0.00 0.00 0.00 0.00 0.00 0.00 0.00 0.01 0.00 0.00 0.00
0.00 0.00 0.00 0.00 0.00 0.00 0.00 0.00 0.00 0.00 0.00 0.00 0.00 0.00 0.00 0.00 0.00 0.00 0.00 0.00 0.00 0.00 0.00 0.00 0.00 0.00 0.00 0.00 0.00 0.00 0.00 0.00 0.00 0.00 0.00 0.00 0.00 0.00 0.00 0.00 0.02 0.04 0.00 0.00 0.00
0.00 0.00 0.00 0.00 0.00 0.00 0.00 0.00 0.00 0.00 0.00 0.00 0.00 0.00 0.00 0.00 0.00 0.00 0.00 0.00 0.00 0.00 0.00 0.00 0.00 0.00 0.00 0.00 0.00 0.00 0.00 0.00 0.00 0.00 0.00 0.00 0.00 0.00 0.00 0.01 0.05 0.08 0.02 0.00 0.00
0.00 0.00 0.00 0.00 0.00 0.00 0.00 0.00 0.00 0.00 0.00 0.00 0.00 0.00 0.00 0.00 0.00 0.00 0.00 0.00 0.00 0.00 0.00 0.00 0.00 0.00 0.00 0.00 0.00 0.00 0.00 0.00 0.00 0.00 0.00 0.00 0.00 0.00 0.00 0.01 0.01 0.03 0.03 0.00 0.00
0.00 0.00 0.00 0.00 0.00 0.00 0.00 0.00 0.00 0.00 0.00 0.00 0.00 0.00 0.00 0.00 0.00 0.00 0.00 0.00 0.00 0.00 0.00 0.00 0.00 0.00 0.00 0.00 0.00 0.00 0.00 0.00 0.00 0.00 0.00 0.00 0.00 0.00 0.00 0.00 0.00 0.02 0.01 0.00 0.00
0.00 0.00 0.00 0.00 0.00 0.00 0.00 0.00 0.00 0.00 0.00 0.00 0.00 0.00 0.00 0.00 0.00 0.00 0.00 0.00 0.00 0.00 0.00 0.00 0.00 0.00 0.00 0.00 0.00 0.00 0.00 0.00 0.00 0.00 0.00 0.00 0.00 0.00 0.00 0.00 0.00 0.01 0.00 0.00 0.00
0.00 0.00 0.00 0.00 0.00 0.00 0.00 0.00 0.00 0.00 0.00 0.00 0.00 0.00 0.00 0.00 0.00 0.00 0.00 0.00 0.00 0.00 0.00 0.00 0.00 0.00 0.00 0.00 0.00 0.00 0.00 0.00 0.00 0.00 0.00 0.00 0.00 0.00 0.00 0.00 0.00 0.00 0.01 0.00 0.00
0.00 0.00 0.00 0.00 0.00 0.00 0.00 0.00 0.00 0.00 0.00 0.00 0.00 0.00 0.00 0.00 0.00 0.00 0.00 0.00 0.00 0.00 0.00 0.00 0.00 0.00 0.00 0.00 0.00 0.00 0.00 0.00 0.00 0.00 0.00 0.00 0.00 0.00 0.00 0.00 0.00 0.00 0.00 0.00 0.00
0.00 0.00 0.00 0.00 0.00 0.00 0.00 0.00 0.00 0.00 0.00 0.00 0.00 0.00 0.00 0.00 0.00 0.00 0.00 0.00 0.00 0.00 0.00 0.00 0.00 0.00 0.00 0.00 0.00 0.00 0.00 0.00 0.00 0.00 0.00 0.00 0.00 0.00 0.00 0.00 0.00 0.00 0.00 0.01 0.00
0.00 0.00 0.00 0.00 0.00 0.00 0.00 0.00 0.00 0.00 0.00 0.00 0.00 0.00 0.00 0.00 0.00 0.00 0.00 0.00 0.00 0.00 0.00 0.00 0.00 0.00 0.00 0.00 0.00 0.00 0.00 0.00 0.00 0.00 0.00 0.00 0.00 0.00 0.00 0.00 0.00 0.00 0.00 0.00 0.00
0.00 0.00 0.00 0.00 0.00 0.00 0.00 0.00 0.00 0.00 0.00 0.00 0.00 0.00 0.00 0.00 0.00 0.00 0.00 0.00 0.00 0.00 0.00 0.00 0.00 0.00 0.00 0.00 0.00 0.00 0.00 0.00 0.00 0.00 0.01 0.00 0.00 0.00 0.00 0.00 0.00 0.00 0.00 0.00 0.00
0.00 0.00 0.00 0.00 0.00 0.00 0.00 0.00 0.00 0.00 0.00 0.00 0.00 0.00 0.00 0.00 0.00 0.00 0.00 0.00 0.00 0.00 0.00 0.00 0.00 0.00 0.00 0.00 0.00 0.00 0.00 0.00 0.00 0.05 0.06 0.00 0.00 0.00 0.00 0.00 0.00 0.00 0.00 0.00 0.00
0.00 0.00 0.00 0.00 0.00 0.00 0.00 0.00 0.00 0.00 0.00 0.00 0.00 0.00 0.00 0.00 0.00 0.00 0.00 0.00 0.00 0.00 0.00 0.00 0.00 0.01 0.00 0.00 0.00 0.00 0.00 0.00 0.00 0.03 0.06 0.05 0.01 0.00 0.00 0.00 0.00 0.00 0.00 0.01 0.01
0.00 0.00 0.00 0.00 0.00 0.00 0.00 0.00 0.00 0.00 0.00 0.00 0.00 0.00 0.00 0.00 0.00 0.00 0.00 0.00 0.00 0.00 0.00 0.00 0.00 0.00 0.01 0.01 0.00 0.00 0.00 0.04 0.13 0.10 0.06 0.02 0.02 0.00 0.00 0.00 0.00 0.00 0.00 0.00 0.01
0.00 0.00 0.00 0.00 0.00 0.00 0.00 0.00 0.00 0.00 0.00 0.00 0.00 0.00 0.00 0.00 0.00 0.00 0.00 0.00 0.00 0.00 0.00 0.00 0.00 0.00 0.00 0.03 0.00 0.00 0.03 0.04 0.06 0.05 0.03 0.01 0.02 0.01 0.01 0.00 0.00 0.00 0.00 0.00 0.00
0.00 0.00 0.00 0.00 0.00 0.00 0.00 0.00 0.00 0.00 0.00 0.00 0.00 0.00 0.00 0.00 0.00 0.00 0.00 0.00 0.00 0.00 0.00 0.00 0.00 0.00 0.01 0.05 0.06 0.01 0.02 0.05 0.03 0.02 0.01 0.02 0.02 0.00 0.00 0.00 0.00 0.00 0.00 0.00 0.00
0.00 0.00 0.00 0.00 0.00 0.00 0.00 0.00 0.00 0.00 0.00 0.00 0.00 0.00 0.00 0.00 0.00 0.00 0.00 0.00 0.00 0.00 0.00 0.00 0.00 0.00 0.00 0.00 0.02 0.04 0.05 0.01 0.00 0.01 0.03 0.00 0.00 0.00 0.00 0.00 0.00 0.00 0.00 0.00 0.00
0.00 0.00 0.00 0.00 0.00 0.00 0.00 0.00 0.00 0.00 0.00 0.00 0.00 0.00 0.00 0.00 0.00 0.00 0.00 0.00 0.00 0.00 0.00 0.00 0.00 0.00 0.00 0.00 0.00 0.01 0.01 0.00 0.00 0.02 0.03 0.00 0.00 0.00 0.00 0.00 0.00 0.00 0.00 0.00 0.00
0.00 0.00 0.00 0.00 0.00 0.00 0.00 0.00 0.00 0.00 0.00 0.00 0.00 0.00 0.00 0.00 0.00 0.00 0.00 0.00 0.00 0.00 0.00 0.00 0.00 0.00 0.00 0.00 0.00 0.00 0.00 0.01 0.01 0.01 0.03 0.01 0.00 0.00 0.00 0.00 0.00 0.00 0.00 0.00 0.00
0.00 0.00 0.00 0.00 0.00 0.00 0.00 0.00 0.00 0.00 0.00 0.00 0.00 0.00 0.00 0.00 0.00 0.00 0.00 0.00 0.00 0.00 0.00 0.00 0.00 0.00 0.00 0.00 0.00 0.00 0.00 0.02 0.04 0.01 0.00 0.01 0.00 0.00 0.00 0.00 0.00 0.00 0.00 0.00 0.00
0.00 0.00 0.00 0.00 0.00 0.00 0.00 0.00 0.00 0.00 0.00 0.00 0.00 0.00 0.00 0.00 0.00 0.00 0.00 0.00 0.00 0.00 0.00 0.00 0.00 0.00 0.00 0.00 0.00 0.00 0.00 0.00 0.00 0.00 0.00 0.00 0.00 0.00 0.00 0.00 0.00 0.00 0.00 0.00 0.00
0.00 0.00 0.00 0.00 0.00 0.00 0.00 0.00 0.00 0.00 0.00 0.00 0.00 0.00 0.00 0.00 0.00 0.00 0.00 0.00 0.00 0.00 0.00 0.00 0.00 0.00 0.00 0.00 0.00 0.00 0.00 0.00 0.00 0.00 0.00 0.00 0.00 0.00 0.00 0.00 0.00 0.00 0.00 0.00 0.00
0.00 0.00 0.00 0.00 0.00 0.00 0.00 0.00 0.00 0.00 0.00 0.00 0.00 0.00 0.00 0.00 0.00 0.00 0.00 0.00 0.00 0.00 0.00 0.00 0.00 0.00 0.00 0.00 0.00 0.00 0.00 0.00 0.00 0.00 0.00 0.00 0.00 0.00 0.00 0.00 0.00 0.00 0.00 0.00 0.00
0.00 0.00 0.00 0.00 0.00 0.00 0.00 0.00 0.00 0.00 0.00 0.00 0.00 0.00 0.00 0.00 0.00 0.00 0.00 0.00 0.00 0.00 0.00 0.00 0.00 0.00 0.00 0.00 0.00 0.00 0.00 0.00 0.00 0.00 0.00 0.00 0.00 0.00 0.00 0.00 0.00 0.00 0.00 0.00 0.00
0.00 0.00 0.00 0.00 0.00 0.00 0.00 0.00 0.00 0.00 0.00 0.00 0.00 0.00 0.00 0.00 0.00 0.00 0.00 0.00 0.00 0.00 0.00 0.00 0.00 0.00 0.00 0.00 0.00 0.00 0.00 0.00 0.00 0.00 0.00 0.00 0.00 0.00 0.00 0.00 0.00 0.00 0.00 0.00 0.00
MSLP
1020.74 1020.55 1020.31 1019.96 1019.64 1019.44 1019.08 1018.72 1018.25 1017.89 1017.54 1017.06 1016.61 1016.20 1015.96 1015.43 1014.21 1012.44 1012.13 1012.91 1012.71 1012.43 1011.61 1010.24 1010.05 1009.61 1009.63 1009.01 1008.63 1008.43 1006.97 1005.22 1004.42 1003.61 1002.94 1002.77 1002.58 1003.15 1003.23 1002.95 1003.63 1003.95 1003.90 1004.23 1006.72
1020.94 1020.38 1020.23 1019.99 1019.71 1019.30 1019.02 1018.53 1018.27 1018.00 1017.62 1017.07 1016.57 1016.26 1015.87 1015.44 1014.12 1012.10 1013.18 1012.99 1012.77 1012.38 1011.14 1010.36 1009.63 1009.54 1009.13 1008.58 1008.24 1007.83 1006.64 1005.12 1004.68 1003.77 1003.37 1003.16 1002.94 1003.02 1004.07 1003.67 1003.84 1004.02 1005.05 1005.29 1006.84
1020.65 1020.47 1020.32 1019.99 1019.64 1019.22 1018.92 1018.67 1018.35 1017.93 1017.43 1016.94 1016.55 1016.18 1015.88 1015.42 1013.22 1012.23 1013.01 1012.85 1012.70 1012.35 1011.39 1010.77 1010.20 1009.77 1008.92 1008.32 1007.75 1007.32 1005.93 1005.78 1004.85 1004.44 1004.06 1003.55 1003.02 1003.51 1003.87 1003.57 1003.47 1003.74 1004.83 1005.80 1006.80
1020.82 1020.59 1020.25 1019.88 1019.57 1019.29 1018.98 1018.56 1018.11 1017.62 1017.18 1016.92 1016.57 1015.98 1015.34 1014.33 1012.56 1012.35 1013.12 1013.07 1012.65 1012.06 1011.15 1010.69 1010.07 1009.53 1008.94 1008.17 1007.76 1007.17 1006.36 1005.96 1005.44 1004.82 1004.70 1004.36 1003.88 1003.36 1003.68 1003.31 1003.23 1003.84 1004.24 1005.81 1006.56
1020.97 1020.64 1020.31 1019.95 1019.59 1019.25 1018.83 1018.33 1017.79 1017.32 1017.02 1016.79 1016.40 1015.94 1014.85 1012.73 1012.09 1012.58 1013.04 1012.61 1011.99 1011.51 1010.86 1010.54 1009.99 1009.53 1008.89 1008.10 1007.84 1007.05 1006.43 1006.17 1005.47 1005.45 1005.00 1004.82 1004.25 1003.64 1003.30 1003.48 1004.65 1004.98 1004.74 1005.53 1006.26
1020.93 1020.63 1020.32 1019.93 1019.54 1019.06 1018.57 1018.10 1017.60 1017.08 1016.69 1016.40 1016.21 1015.96 1014.35 1012.30 1012.31 1012.34 1012.54 1012.25 1011.76 1011.45 1010.80 1010.59 1010.20 1009.99 1009.41 1008.66 1008.16 1007.13 1006.68 1006.31 1005.78 1005.30 1005.18 1004.92 1004.30 1004.02 1003.35 1003.15 1004.23 1005.16 1005.28 1005.39 1006.10
1020.88 1020.54 1020.26 1019.91 1019.40 1018.87 1018.36 1017.81 1017.19 1016.63 1016.23 1016.02 1016.03 1015.42 1013.86 1012.51 1012.13 1012.13 1012.24 1011.94 1011.90 1011.63 1011.10 1010.81 1010.68 1010.29 1009.29 1008.51 1007.99 1007.68 1007.18 1006.45 1005.91 1005.44 1005.01 1004.95 1004.03 1002.95 1003.22 1003.09 1003.57 1004.58 1004.75 1004.98 1005.67
1020.95 1020.67 1020.28 1019.82 1019.28 1018.68 1017.97 1017.45 1016.90 1016.45 1016.22 1015.91 1015.91 1014.77 1012.48 1012.15 1012.06 1012.08 1011.64 1011.40 1011.80 1011.72 1011.60 1011.12 1010.93 1010.44 1009.75 1008.98 1008.31 1007.76 1006.92 1005.61 1004.65 1005.08 1004.63 1005.04 1002.39 1002.99 1002.95 1002.94 1003.43 1004.29 1004.45 1004.61 1005.09
1020.90 1020.53 1020.14 1019.66 1019.10 1018.44 1017.75 1017.22 1016.64 1016.34 1016.24 1016.08 1015.47 1014.19 1011.70 1012.39 1011.76 1011.57 1011.58 1011.27 1011.19 1011.27 1011.38 1011.15 1011.00 1009.91 1009.21 1008.89 1007.80 1006.80 1005.84 1004.93 1004.00 1003.60 1004.09 1003.85 1002.14 1003.02 1002.48 1002.25 1002.90 1003.27 1004.24 1004.43 1005.38
1020.92 1020.47 1020.00 1019.47 1018.97 1018.28 1017.37 1016.81 1016.36 1016.35 1015.65 1015.30 1014.76 1014.05 1011.78 1011.47 1011.49 1011.47 1011.25 1011.48 1011.04 1010.72 1010.56 1010.56 1009.97 1009.31 1008.57 1008.00 1007.00 1006.29 1005.42 1004.50 1003.92 1003.60 1003.23 1002.90 1002.42 1003.02 1002.31 1001.92 1002.46 1002.90 1003.42 1004.10 1004.86
1020.77 1020.35 1019.99 1019.54 1018.94 1018.19 1016.97 1016.14 1016.05 1015.24 1014.18 1014.18 1013.68 1013.17 1011.90 1011.68 1011.14 1010.95 1010.99 1011.02 1010.78 1010.37 1009.40 1009.30 1009.53 1008.35 1007.62 1007.69 1007.66 1007.34 1006.64 1005.53 1004.72 1003.97 1003.32 1002.43 1002.49 1002.31 1002.24 1002.54 1002.55 1002.52 1003.25 1003.73 1004.06
1020.74 1020.38 1019.95 1019.47 1018.93 1018.09 1017.51 1016.46 1017.55 1017.72 1015.43 1013.61 1013.45 1013.09 1012.47 1012.48 1011.23 1010.29 1011.06 1010.71 1009.89 1009.52 1009.10 1008.98 1008.62 1008.08 1008.08 1008.06 1007.88 1007.57 1006.80 1005.90 1005.19 1004.61 1003.50 1002.67 1001.93 1001.86 1001.40 1002.09 1002.46 1002.56 1002.75 1003.28 1003.64
1020.78 1020.38 1019.92 1019.36 1018.67 1018.08 1017.46 1017.74 1017.93 1017.68 1015.82 1012.94 1012.62 1012.24 1012.00 1012.38 1011.05 1010.22 1010.78 1010.19 1009.74 1009.47 1009.08 1008.81 1008.40 1008.30 1008.21 1007.97 1007.52 1007.20 1006.94 1006.29 1005.60 1004.78 1003.81 1002.75 1001.72 1001.14 1000.84 1001.64 1002.20 1002.57 1002.91 1003.21 1003.58
1020.84 1020.52 1020.02 1019.28 1019.06 1017.95 1017.56 1018.10 1017.93 1017.76 1014.90 1012.55 1011.81 1011.55 1011.62 1011.84 1010.94 1010.44 1010.51 1010.70 1009.53 1009.24 1009.39 1009.11 1008.64 1008.43 1008.00 1007.48 1007.25 1006.77 1006.61 1006.55 1006.35 1005.56 1004.14 1003.02 1001.81 1000.54 1000.27 1000.73 1001.47 1002.40 1002.50 1003.14 1003.92
1020.72 1020.41 1020.09 1019.84 1018.80 1017.67 1018.20 1018.13 1017.94 1017.43 1013.85 1012.14 1011.31 1011.50 1010.96 1011.16 1010.74 1010.16 1010.61 1010.42 1009.75 1009.62 1009.84 1009.14 1009.01 1008.64 1008.19 1007.31 1007.01 1006.71 1006.73 1006.76 1006.47 1006.06 1005.17 1004.41 1002.64 999.72 999.71 999.76 1000.32 1001.51 1002.23 1003.10 1003.95
1020.83 1020.44 1020.09 1018.78 1018.48 1018.40 1018.43 1018.19 1017.70 1015.85 1012.43 1011.53 1011.25 1010.92 1010.26 1010.10 1009.80 1010.07 1009.94 1010.35 1009.69 1009.65 1009.05 1009.19 1009.06 1009.07 1008.54 1008.06 1007.47 1007.16 1006.99 1007.11 1007.09 1006.86 1006.25 1005.80 1004.14 999.93 998.45 998.88 999.42 1000.37 1001.66 1002.80 1004.38
1020.77 1020.44 1020.07 1019.17 1018.32 1018.65 1018.38 1017.43 1015.57 1013.29 1012.12 1011.49 1011.34 1011.11 1010.73 1009.99 1009.71 1009.51 1009.31 1008.82 1009.67 1009.75 1008.97 1009.32 1009.01 1008.79 1008.83 1007.91 1006.73 1007.37 1007.57 1009.11 1009.25 1008.12 1005.73 1004.87 1004.52 1001.95 999.83 998.98 999.29 999.71 1000.71 1002.48 1004.13
1020.53 1020.17 1019.54 1019.09 1018.73 1018.61 1017.85 1016.07 1014.08 1012.72 1012.11 1012.15 1011.71 1011.14 1010.71 1010.69 1009.97 1009.66 1008.99 1009.00 1009.63 1010.25 1009.72 1009.92 1009.20 1009.14 1008.65 1008.49 1008.22 1007.57 1007.93 1009.81 1009.45 1008.59 1006.74 1004.36 1002.61 1001.27 1001.78 1001.29 1001.13 1001.82 1002.46 1003.76 1004.88
1020.09 1018.76 1018.50 1018.45 1018.94 1018.50 1017.17 1014.50 1013.04 1013.23 1013.35 1012.93 1011.86 1010.96 1010.27 1010.38 1010.56 1009.54 1009.05 1009.67 1010.17 1010.65 1010.77 1010.35 1009.75 1009.19 1008.70 1008.43 1008.43 1007.91 1009.24 1011.24 1010.88 1008.94 1007.66 1004.70 1001.80 1001.23 1001.44 1001.98 1002.38 1003.15 1004.19 1005.04 1005.90
1019.64 1018.26 1018.05 1018.77 1018.62 1017.90 1016.21 1014.21 1013.82 1014.14 1014.08 1013.43 1012.51 1011.88 1011.25 1010.82 1010.74 1010.30 1009.58 1010.30 1010.69 1010.88 1011.23 1010.74 1010.26 1008.90 1008.28 1007.91 1008.09 1008.35 1009.43 1010.26 1010.23 1007.97 1006.27 1003.69 1003.24 1002.55 1001.98 1002.47 1003.38 1004.08 1004.97 1006.23 1007.06
1019.47 1017.70 1018.36 1018.65 1018.36 1016.84 1015.16 1014.32 1014.64 1014.56 1014.68 1014.01 1013.13 1012.67 1012.03 1011.60 1011.50 1010.88 1010.40 1010.76 1011.14 1011.10 1011.11 1010.73 1010.27 1008.79 1008.43 1007.47 1007.57 1007.96 1008.26 1008.70 1008.37 1007.27 1006.94 1004.57 1004.08 1003.68 1003.20 1003.30 1003.82 1004.81 1006.03 1006.98 1007.65
1018.96 1017.41 1018.18 1018.28 1017.19 1015.76 1014.94 1015.47 1015.91 1014.86 1014.76 1014.47 1014.03 1013.32 1012.82 1012.41 1011.77 1011.30 1011.05 1011.20 1012.00 1011.76 1011.12 1010.74 1010.28 1008.43 1007.96 1007.46 1007.39 1007.49 1007.44 1007.26 1007.82 1007.25 1006.03 1005.97 1004.78 1004.05 1004.00 1004.17 1004.70 1006.04 1007.07 1007.92 1008.57
1018.38 1017.42 1017.81 1017.59 1016.06 1015.09 1015.11 1015.57 1015.64 1015.27 1014.85 1014.59 1014.13 1013.96 1013.61 1013.04 1012.43 1011.55 1011.67 1011.70 1012.15 1012.04 1011.88 1011.57 1009.64 1008.15 1007.63 1007.04 1006.95 1006.84 1006.75 1006.85 1006.97 1006.74 1006.43 1005.57 1005.27 1004.45 1004.68 1004.96 1005.67 1006.72 1007.80 1008.65 1009.31
1018.61 1017.01 1016.72 1016.67 1016.47 1016.03 1015.56 1015.12 1015.37 1015.64 1015.42 1015.16 1014.63 1014.39 1013.90 1013.17 1012.65 1012.12 1011.84 1012.02 1012.17 1012.36 1012.45 1012.28 1010.51 1009.07 1008.02 1007.25 1007.31 1006.90 1006.74 1006.71 1006.66 1006.53 1006.48 1006.29 1005.19 1004.41 1004.91 1005.59 1006.23 1007.20 1008.11 1008.99 1009.67
1018.61 1017.05 1017.23 1015.78 1015.33 1015.98 1016.10 1015.78 1015.50 1015.42 1015.50 1015.29 1014.56 1014.80 1014.62 1013.79 1012.93 1012.27 1012.17 1012.03 1011.93 1012.24 1012.06 1011.59 1010.27 1008.89 1008.14 1007.39 1007.08 1006.91 1006.79 1006.70 1006.65 1006.74 1006.56 1005.99 1005.68 1005.49 1005.91 1006.03 1006.51 1007.46 1008.32 1009.15 1009.90
1018.04 1017.79 1017.84 1016.76 1016.42 1016.11 1016.18 1015.46 1015.79 1015.60 1015.86 1014.96 1015.14 1014.95 1015.12 1014.60 1014.08 1013.27 1013.05 1012.72 1012.37 1012.06 1012.02 1011.58 1010.43 1009.15 1007.84 1007.27 1007.03 1006.80 1006.74 1006.74 1006.80 1006.81 1006.67 1006.37 1006.17 1006.72 1006.85 1006.76 1007.00 1007.78 1008.61 1009.39 1010.21
1018.52 1018.57 1017.87 1017.11 1016.59 1016.14 1015.63 1015.58 1015.79 1016.36 1015.79 1016.08 1015.86 1015.65 1015.24 1014.87 1014.71 1014.34 1013.81 1013.26 1012.85 1012.51 1012.43 1011.92 1010.78 1009.57 1007.41 1007.02 1006.63 1006.55 1006.97 1007.02 1007.08 1007.20 1007.29 1006.85 1007.32 1007.30 1007.44 1007.69 1007.91 1008.28 1008.99 1009.58 1010.35
Thickness
5684 5683 5684 5685 5685 5684 5685 5685 5686 5686 5686 5687 5688 5688 5685 5687 5695 5709 5706 5705 5706 5708 5716 5728 5727 5730 5729 5728 5735 5737 5721 5728 5743 5750 5763 5784 5777 5789 5796 5790 5791 5794 5794 5802 5788
5680 5684 5683 5682 5682 5683 5683 5684 5682 5681 5680 5681 5681 5680 5679 5679 5687 5699 5692 5693 5695 5699 5708 5710 5712 5716 5713 5719 5723 5719 5716 5733 5753 5761 5759 5771 5773 5777 5766 5772 5775 5782 5785 5790 5780
5681 5680 5679 5680 5681 5681 5680 5678 5677 5676 5676 5675 5674 5673 5671 5671 5682 5686 5685 5686 5687 5691 5698 5702 5704 5702 5702 5713 5716 5717 5717 5731 5744 5751 5758 5760 5766 5772 5761 5758 5776 5774 5772 5774 5770
5678 5678 5678 5679 5678 5677 5676 5675 5675 5674 5673 5670 5668 5668 5669 5673 5666 5681 5675 5676 5680 5685 5691 5690 5692 5689 5689 5692 5708 5698 5719 5723 5730 5741 5742 5743 5757 5758 5759 5768 5785 5779 5779 5769 5764
5676 5676 5676 5676 5675 5674 5673 5673 5674 5673 5670 5667 5664 5662 5666 5674 5671 5674 5670 5673 5678 5682 5681 5680 5680 5682 5678 5691 5695 5695 5706 5713 5724 5725 5733 5739 5739 5747 5755 5770 5764 5766 5769 5765 5761
5674 5673 5673 5673 5673 5673 5673 5672 5672 5671 5670 5666 5661 5657 5664 5664 5673 5671 5668 5670 5672 5673 5675 5676 5674 5677 5673 5677 5678 5694 5697 5701 5710 5715 5721 5719 5729 5737 5753 5767 5753 5754 5756 5760 5757
5671 5671 5670 5670 5670 5671 5671 5671 5671 5672 5670 5666 5658 5656 5659 5662 5671 5670 5667 5668 5668 5667 5664 5670 5670 5664 5672 5669 5683 5681 5673 5685 5693 5701 5705 5714 5710 5729 5750 5756 5750 5747 5755 5757 5756
5668 5668 5667 5667 5668 5669 5671 5670 5670 5669 5667 5662 5656 5658 5662 5672 5669 5667 5669 5667 5664 5663 5660 5663 5662 5657 5657 5666 5664 5660 5667 5665 5697 5692 5701 5694 5704 5730 5744 5744 5740 5740 5749 5752 5754
5666 5666 5665 5665 5666 5668 5669 5669 5669 5667 5662 5657 5657 5656 5663 5670 5667 5668 5665 5658 5660 5658 5655 5655 5650 5649 5652 5641 5646 5659 5648 5662 5677 5697 5689 5689 5704 5719 5737 5740 5734 5741 5741 5746 5741
5663 5664 5664 5664 5664 5666 5669 5670 5668 5664 5663 5660 5659 5652 5669 5661 5664 5662 5664 5656 5651 5651 5648 5644 5644 5639 5644 5639 5628 5638 5645 5658 5658 5679 5683 5683 5692 5703 5723 5729 5729 5734 5739 5740 5738
5661 5661 5660 5660 5661 5663 5668 5674 5674 5673 5673 5660 5658 5652 5662 5664 5669 5660 5660 5652 5649 5645 5639 5645 5625 5627 5636 5633 5630 5624 5624 5630 5646 5666 5666 5675 5680 5694 5711 5710 5716 5728 5730 5734 5738
5658 5657 5657 5658 5658 5661 5661 5661 5648 5645 5648 5666 5659 5653 5657 5653 5649 5660 5655 5642 5644 5633 5642 5631 5616 5628 5624 5618 5611 5608 5607 5615 5632 5645 5654 5663 5672 5690 5706 5703 5709 5719 5726 5729 5735
5654 5653 5654 5656 5657 5658 5656 5648 5644 5642 5644 5665 5663 5657 5656 5650 5648 5652 5649 5646 5637 5628 5629 5615 5617 5618 5610 5604 5598 5597 5593 5601 5607 5628 5645 5656 5660 5679 5700 5700 5705 5712 5720 5725 5727
5650 5649 5650 5653 5653 5655 5650 5643 5640 5638 5649 5660 5660 5660 5659 5649 5642 5656 5651 5637 5636 5624 5619 5612 5616 5608 5604 5600 5598 5585 5603 5598 5596 5604 5608 5656 5631 5674 5693 5689 5697 5702 5714 5716 5717
5649 5648 5647 5644 5648 5651 5642 5639 5637 5636 5640 5662 5661 5668 5663 5645 5647 5647 5649 5638 5626 5621 5615 5607 5602 5599 5593 5600 5601 5589 5600 5594 5597 5598 5616 5620 5636 5682 5695 5691 5695 5701 5708 5712 5713
5645 5645 5643 5647 5645 5641 5637 5635 5635 5636 5638 5653 5658 5654 5653 5653 5652 5648 5643 5639 5636 5622 5624 5611 5614 5600 5596 5596 5598 5598 5594 5594 5596 5600 5581 5590 5612 5673 5693 5697 5704 5710 5709 5709 5703
5642 5641 5639 5639 5641 5634 5634 5636 5640 5641 5662 5648 5643 5648 5644 5644 5644 5645 5638 5636 5616 5601 5609 5605 5602 5607 5600 5593 5609 5598 5588 5550 5563 5575 5600 5614 5604 5637 5681 5708 5708 5713 5714 5710 5702
5640 5639 5639 5636 5634 5632 5634 5640 5630 5649 5647 5650 5645 5645 5637 5638 5642 5640 5642 5631 5630 5613 5605 5583 5581 5595 5604 5593 5587 5599 5595 5567 5577 5591 5599 5639 5640 5648 5667 5678 5689 5692 5697 5695 5691
5641 5645 5641 5637 5629 5629 5632 5638 5644 5639 5636 5631 5641 5639 5643 5643 5633 5640 5640 5626 5623 5615 5594 5587 5582 5603 5606 5606 5603 5602 5578 5567 5557 5580 5581 5629 5665 5675 5676 5669 5674 5676 5676 5676 5677
5641 5646 5641 5632 5629 5629 5630 5634 5636 5634 5629 5632 5623 5634 5625 5632 5627 5629 5633 5628 5617 5619 5611 5602 5581 5607 5610 5617 5612 5601 5592 5576 5573 5595 5602 5636 5631 5639 5664 5663 5662 5665 5666 5661 5662
5638 5644 5637 5630 5627 5631 5627 5633 5626 5631 5625 5622 5625 5623 5627 5625 5622 5623 5626 5626 5620 5615 5615 5610 5599 5608 5610 5613 5607 5607 5602 5600 5610 5618 5592 5625 5633 5652 5655 5662 5663 5663 5659 5657 5657
5636 5636 5634 5630 5626 5635 5629 5619 5608 5621 5624 5620 5620 5621 5618 5621 5620 5620 5618 5620 5614 5613 5606 5615 5605 5608 5608 5624 5625 5618 5613 5619 5587 5597 5623 5605 5628 5658 5657 5660 5661 5651 5649 5648 5648
5630 5635 5631 5629 5626 5630 5629 5615 5612 5612 5616 5615 5615 5617 5618 5613 5609 5622 5618 5623 5615 5610 5604 5606 5617 5612 5610 5626 5628 5620 5626 5626 5626 5626 5613 5613 5618 5656 5654 5654 5653 5646 5643 5640 5639
5622 5626 5632 5628 5624 5617 5615 5616 5608 5609 5606 5609 5611 5612 5611 5613 5620 5613 5616 5618 5617 5608 5601 5601 5609 5612 5607 5617 5620 5613 5621 5626 5627 5616 5617 5614 5630 5651 5650 5645 5647 5643 5641 5637 5634
5616 5623 5617 5623 5626 5614 5609 5608 5602 5600 5605 5606 5608 5602 5600 5601 5610 5614 5615 5614 5618 5607 5610 5610 5604 5622 5623 5627 5626 5622 5620 5624 5622 5625 5617 5630 5631 5640 5639 5644 5645 5641 5638 5633 5629
5614 5609 5605 5614 5611 5607 5599 5607 5597 5598 5595 5601 5595 5601 5597 5595 5600 5600 5604 5605 5604 5611 5606 5611 5604 5619 5622 5629 5629 5623 5627 5627 5626 5627 5628 5633 5632 5636 5638 5644 5643 5638 5632 5627 5622
5600 5597 5598 5599 5603 5602 5604 5603 5597 5589 5595 5590 5589 5589 5590 5598 5598 5599 5601 5603 5605 5602 5597 5599 5606 5610 5622 5633 5633 5626 5624 5626 5626 5627 5624 5625 5625 5634 5632 5632 5634 5632 5627 5623 5618